Weather in Aslanbek-Sheripovo

Russia / Chechen Republic     42°50′21″N   45°44′57″E
temp.,
°C
wind,
m/s
gust,
m/s
humid.,
%
clouds,
%
prec.,
mm/h
press.,
hPa
HPBL,
m
12 april, mon
mon1200:00+6sse347597 0.0 101471
03:00+6sse2379100 0.0 101448
06:00+5se1279100 0.0 101644
09:00+9n2167100 0.0 1016493
12:00+10n426363 0.1 1016710
15:00+6n338698 0.5 1019519
18:00+5nne218674 0.1 1020375
21:00+4ene119365 0.1 1021130
13 april, tue
tue1300:00+3nne119453 0.0 102183
03:00+3nne1197100 0.0 1021214
06:00+4ne118976 0.0 1021152
09:00+9nne226421 0.1 1018682
12:00+10n436849 0.1 1017625
15:00+6nnw3294100 1.0 1018341
18:00+5nnw1194100 0.7 1018355
21:00+5ne119481 0.9 1018179
14 april, wed
wed1400:00+4ne119878 0.1 1017103
03:00+4n019551 0.3 101599
06:00+3nnw119992 0.1 1016186
09:00+3nnw1197100 1.1 1017302
12:00+3ne2296100 4.6 1017282
15:00+3n1197100 7.5 1017312
18:00+3n1196100 0.3 1017197
21:00+3nnw0197100 1.4 1018261
15 april, thu
thu1500:00+3s129399 0.4 101793
03:000s228336 0.4 101923
06:00+1s22763 0.0 101938
09:00+8nnw22502 0.0 1015829
12:00+11n334515 0.0 10141597
15:00+11n325578 0.6 10141280
18:00+8n2269100 0.4 1016224
21:00+4s117798 0.4 101813
16 april, fri
fri1600:00+4s2277100 0.0 101720
03:00+4s1176100 0.0 101712
06:00+4s227769 0.0 101826
09:00+10nne225112 0.0 1016984
12:00+12n324888 0.3 10151585
15:00+11nne215971 1.3 10161108
18:00+9n126944 0.5 1016112
21:00+6s227726 0.7 101838